| time (UTC) | temp C | wind direction | speed KPH | gust KPH | rain 1hr cm | rain 24hr cm | rain mn cm | humidity % | barometer mb |
| 20260503232023 | 12 | 300 | 3.2 | 9.7 | 0.00 | 0.00 | 0.00 | 35 | 1006.8 |
| 20260503231039 | 12 | 299 | 6.4 | 14.5 | 0.00 | 0.00 | 0.00 | 35 | 1006.8 |
| 20260503230038 | 12 | 245 | 1.6 | 6.4 | 0.00 | 0.00 | 0.00 | 35 | 1006.7 |
| 20260503225019 | 12 | 308 | 4.8 | 9.7 | 0.00 | 0.00 | 0.00 | 34 | 1006.8 |
| 20260503224018 | 12 | 313 | 6.4 | 12.9 | 0.00 | 0.00 | 0.00 | 34 | 1006.8 |
| 20260503223019 | 12 | 310 | 8.0 | 14.5 | 0.00 | 0.00 | 0.00 | 34 | 1006.8 |
| 20260503222019 | 12 | 298 | 6.4 | 12.9 | 0.00 | 0.00 | 0.00 | 35 | 1006.9 |
| 20260503221019 | 12 | 307 | 4.8 | 12.9 | 0.00 | 0.00 | 0.00 | 36 | 1006.8 |
| 20260503220020 | 12 | 314 | 6.4 | 14.5 | 0.00 | 0.00 | 0.00 | 36 | 1006.8 |
| 20260503215039 | 12 | 277 | 6.4 | 11.3 | 0.00 | 0.00 | 0.00 | 36 | 1006.8 |
| 20260503214017 | 12 | 292 | 4.8 | 12.9 | 0.00 | 0.00 | 0.00 | 37 | 1006.9 |
| 20260503213021 | 12 | 288 | 6.4 | 14.5 | 0.00 | 0.00 | 0.00 | 37 | 1007.0 |
| 20260503212041 | 12 | 300 | 4.8 | 16.1 | 0.00 | 0.00 | 0.00 | 37 | 1007.0 |
| 20260503211017 | 12 | 307 | 6.4 | 14.5 | 0.00 | 0.00 | 0.00 | 37 | 1006.9 |
| 20260503210021 | 12 | 313 | 8.0 | 14.5 | 0.00 | 0.00 | 0.00 | 37 | 1006.9 |
| 20260503205018 | 12 | 272 | 6.4 | 14.5 | 0.00 | 0.00 | 0.00 | 37 | 1007.0 |
| 20260503204021 | 12 | 279 | 6.4 | 14.5 | 0.00 | 0.00 | 0.00 | 37 | 1007.0 |
| 20260503203019 | 11 | 295 | 4.8 | 11.3 | 0.00 | 0.00 | 0.00 | 40 | 1007.1 |
| 20260503202019 | 11 | 302 | 6.4 | 19.3 | 0.00 | 0.00 | 0.00 | 38 | 1007.2 |
| 20260503201021 | 11 | 286 | 4.8 | 14.5 | 0.00 | 0.00 | 0.00 | 40 | 1007.3 |
| 20260503200022 | 11 | 314 | 8.0 | 20.9 | 0.00 | 0.00 | 0.00 | 39 | 1007.4 |
| 20260503195018 | 11 | 305 | 6.4 | 16.1 | 0.00 | 0.00 | 0.00 | 39 | 1007.4 |
| 20260503194018 | 11 | 299 | 3.2 | 14.5 | 0.00 | 0.00 | 0.00 | 39 | 1007.5 |
| 20260503193018 | 11 | 288 | 6.4 | 14.5 | 0.00 | 0.00 | 0.00 | 40 | 1007.7 |
| 20260503192020 | 11 | 294 | 6.4 | 11.3 | 0.00 | 0.00 | 0.00 | 41 | 1007.9 |
| 20260503191021 | 10 | 333 | 9.7 | 16.1 | 0.00 | 0.00 | 0.00 | 41 | 1008.1 |
| 20260503190019 | 10 | 327 | 8.0 | 16.1 | 0.00 | 0.00 | 0.00 | 42 | 1008.1 |
| 20260503185019 | 10 | 331 | 8.0 | 16.1 | 0.00 | 0.00 | 0.00 | 43 | 1008.2 |
| 20260503184020 | 11 | 317 | 8.0 | 14.5 | 0.00 | 0.00 | 0.00 | 43 | 1008.3 |
| 20260503183020 | 11 | 248 | 4.8 | 14.5 | 0.00 | 0.00 | 0.00 | 44 | 1008.5 |
| 20260503182041 | 10 | 326 | 8.0 | 16.1 | 0.00 | 0.00 | 0.00 | 45 | 1008.7 |
| 20260503181017 | 9 | 322 | 6.4 | 14.5 | 0.00 | 0.00 | 0.00 | 48 | 1008.8 |
| 20260503180021 | 9 | 323 | 6.4 | 11.3 | 0.00 | 0.00 | 0.00 | 49 | 1008.9 |
| 20260503175017 | 9 | 282 | 6.4 | 11.3 | 0.00 | 0.00 | 0.00 | 48 | 1008.9 |
| 20260503174020 | 10 | 305 | 4.8 | 14.5 | 0.00 | 0.00 | 0.00 | 49 | 1008.9 |
| 20260503173018 | 10 | 305 | 6.4 | 16.1 | 0.00 | 0.00 | 0.00 | 48 | 1009.0 |
| 20260503172018 | 10 | 286 | 6.4 | 17.7 | 0.00 | 0.00 | 0.00 | 47 | 1009.2 |
| 20260503171019 | 9 | 281 | 4.8 | 14.5 | 0.00 | 0.00 | 0.00 | 50 | 1009.3 |
| 20260503131039 | 6 | 20 | 1.6 | 4.8 | 0.00 | 0.00 | 0.00 | 64 | 1011.8 |
| 20260503081031 | 4 | 337 | 3.2 | 3.2 | 0.00 | 0.00 | 0.00 | 86 | 1011.4 |
| 20260503072053 | 5 | 337 | 3.2 | 4.8 | 0.00 | 0.00 | 0.00 | 82 | 1011.5 |
| 20260503071031 | 5 | 339 | 3.2 | 4.8 | 0.00 | 0.00 | 0.00 | 82 | 1011.6 |
| 20260503055032 | 5 | 300 | 3.2 | 4.8 | 0.00 | 0.00 | 0.00 | 80 | 1011.9 |
| 20260503054017 | 5 | 297 | 1.6 | 1.6 | 0.00 | 0.00 | 0.00 | 80 | 1011.9 |
| 20260503053019 | 5 | 346 | 3.2 | 3.2 | 0.00 | 0.00 | 0.00 | 79 | 1012.0 |
| 20260503052018 | 5 | 348 | 3.2 | 3.2 | 0.00 | 0.00 | 0.00 | 78 | 1012.1 |
| 20260503051019 | 5 | 324 | 1.6 | 3.2 | 0.00 | 0.00 | 0.00 | 77 | 1012.1 |
| 20260503050018 | 5 | 325 | 3.2 | 4.8 | 0.00 | 0.00 | 0.00 | 76 | 1012.1 |
| 20260503045019 | 5 | 309 | 1.6 | 3.2 | 0.00 | 0.00 | 0.00 | 79 | 1012.2 |
| 20260503044020 | 4 | 319 | 1.6 | 3.2 | 0.00 | 0.00 | 0.00 | 84 | 1012.2 |
| 20260503043018 | 4 | 262 | 1.6 | 1.6 | 0.00 | 0.00 | 0.00 | 83 | 1012.2 |
| 20260503042020 | 5 | 284 | 1.6 | 1.6 | 0.00 | 0.00 | 0.00 | 82 | 1012.3 |
| 20260503041019 | 5 | 246 | 0.0 | 1.6 | 0.00 | 0.00 | 0.00 | 81 | 1012.3 |
| 20260503040019 | 5 | 256 | 1.6 | 1.6 | 0.00 | 0.00 | 0.00 | 79 | 1012.4 |
| 20260503035019 | 6 | 232 | 1.6 | 1.6 | 0.00 | 0.00 | 0.00 | 77 | 1012.5 |
| 20260503034020 | 6 | 295 | 1.6 | 3.2 | 0.00 | 0.00 | 0.00 | 76 | 1012.5 |
| 20260503033041 | 6 | 328 | 1.6 | 3.2 | 0.00 | 0.00 | 0.00 | 76 | 1012.5 |
| 20260503032020 | 6 | 328 | 3.2 | 3.2 | 0.00 | 0.00 | 0.00 | 76 | 1012.5 |
| 20260503031020 | 6 | 316 | 1.6 | 3.2 | 0.00 | 0.00 | 0.00 | 76 | 1012.6 |
| 20260503030020 | 6 | 283 | 1.6 | 1.6 | 0.00 | 0.00 | 0.00 | 74 | 1012.6 |
| 20260503025020 | 6 | 263 | 1.6 | 3.2 | 0.00 | 0.00 | 0.00 | 75 | 1012.7 |
| 20260503024021 | 7 | 340 | 1.6 | 3.2 | 0.00 | 0.00 | 0.00 | 74 | 1012.7 |
| 20260503023058 | 7 | 346 | 3.2 | 4.8 | 0.00 | 0.00 | 0.00 | 73 | 1012.8 |
| 20260503022019 | 7 | 329 | 4.8 | 8.0 | 0.00 | 0.00 | 0.00 | 71 | 1012.7 |
| 20260503021019 | 7 | 325 | 4.8 | 8.0 | 0.00 | 0.00 | 0.00 | 71 | 1012.8 |
| 20260503020019 | 7 | 313 | 3.2 | 9.7 | 0.00 | 0.00 | 0.00 | 70 | 1012.8 |
| 20260503015019 | 7 | 319 | 4.8 | 11.3 | 0.00 | 0.00 | 0.00 | 69 | 1012.8 |
| 20260503014019 | -17 | 345 | 3.2 | 3.2 | 0.00 | 0.00 | 0.00 | ||
| 20260503013019 | 7 | 321 | 4.8 | 9.7 | 0.00 | 0.00 | 0.00 | 70 | 1012.7 |
| 20260503012019 | -17 | 300 | 4.8 | 6.4 | 0.00 | 0.00 | 0.00 | ||
| 20260503011040 | 8 | 308 | 3.2 | 4.8 | 0.00 | 0.00 | 0.00 | 70 | 1012.4 |
| 20260503010020 | 8 | 323 | 3.2 | 8.0 | 0.00 | 0.00 | 0.00 | 68 | 1012.3 |
| 20260503005020 | 8 | 323 | 4.8 | 8.0 | 0.00 | 0.00 | 0.00 | 67 | 1012.2 |
| 20260503004017 | 8 | 318 | 4.8 | 8.0 | 0.00 | 0.00 | 0.00 | 65 | 1012.2 |
| 20260503003020 | 8 | 293 | 4.8 | 6.4 | 0.00 | 0.00 | 0.00 | 64 | 1012.2 |
| 20260503002017 | 8 | 314 | 4.8 | 12.9 | 0.00 | 0.00 | 0.00 | 66 | 1012.1 |
| 20260503001046 | 8 | 298 | 4.8 | 8.0 | 0.00 | 0.00 | 0.00 | 66 | 1011.9 |
| 20260503000021 | 8 | 318 | 4.8 | 11.3 | 0.00 | 0.00 | 0.00 | 63 | 1011.9 |
| 20260502235018 | 8 | 317 | 3.2 | 6.4 | 0.00 | 0.00 | 0.00 | 63 | 1011.8 |
| 20260502234018 | 8 | 308 | 4.8 | 9.7 | 0.00 | 0.00 | 0.00 | 64 | 1011.8 |
| 20260502233022 | 8 | 234 | 3.2 | 6.4 | 0.00 | 0.00 | 0.00 | 68 | 1011.8 |